Showing default

COSMOS 2419 (GLONASS), 28915

Orbit data source: Space-Track

COSMOS 2419 (GLONASS), 28915 is a Commonwealth of Independent States-origin payload satellite in MEO that was launched on Sun, 25 Dec 2005 UTC via a PROTON-K/DM-2 launch vehicle from the Tyuratam Missile And Space Complex (TTMTR). Payload-class satellites include a variety of spacecraft equipped with specific instruments for various scientific and technological missions. These include communications satellites like Starlink; space stations such as the ISS; scientific satellites like the Hubble; Earth observation satellites from companies like Planet Labs, Umbra, and HawkEye 360; GPS; miniature CubeSats for education and research; and military/defense satellites.

Loading next visibility...
Identifier
28915, 2005-050A
Orbit
MEO
Country
Flag of CISCIS
Related business
Manufacturer
Polyot
Mission
Non-operational Defense Navigation
Bus & Motor
URAGAN, Unknown motor
Mass
~1,450 kg wet, ~1,200 kg dry
Launch date (UTC)
2005-12-25 (20 years ago)
Launch vehicle
PROTON-K/DM-2
Launch site
Tyuratam Missile And Space Complex (TTMTR)
Object type
Payload
Rocket body
Debris
Shape & HBR
Cyl + 2 Pan, 4.2 m
Radar Cross Section
14.707 m², Large (>1 m²)

Expand to show TLE details & history
Last TLE update: 2 days ago

TLE from 2 days ago
0 COSMOS 2419 (GLONASS)
1 28915U 05050A   25259.58639191 -.00000059  00000-0  00000-0 0  9995
2 28915  65.7195 325.3078 0014109 329.6737  11.3427  2.13108238153533
Epoch: 2025-09-16T14:04Z
TLE epoch observation values (Epoch: 2025-09-16T14:04:24.261Z)
Latitude
-17.30557°
Longitude
110.37907°
Altitude
19,098.698 km
Speed
3.958 km/s
True Right ascension
21h 09m 01s
True Declination
-17° 16' 42"
Sunlit
Object was in daylight at epoch
Visualization orbit readout
Latitude
Unknown
Longitude
Unknown
Altitude
Unknown
Speed
Unknown
Apparent Right ascension
Unknown
Apparent Declination
Unknown
Sunlit
N/A
Visualization observer readout
Local Sidereal Time
20:42:22
Azimuth
Unknown
Elevation
Unknown
Doppler factor
Unknown
Orbital elements
Apogee altitude
19,164.968 km
Perigee altitude
19,092.992 km
Semi-major axis
25,507.117 km
Eccentricity
0.00141
Inclination
65.7195°
RAAN
325.3078°
Arg. of periapsis
329.6737°
True anomaly
11.37455°
Mean anomaly
11.3427°
Eccentric anomaly
11.35862°
Mean motion
0.53278 °/min
Orbital period
675.7 mins
BSTAR
0
Loading maneuver chart data...
Computing Atmospheric mass density...
Loading historical data...
Loading historical data...
Loading historical data...
Loading historical data...
Loading historical data...
Loading historical data...
Loading historical data...

Documentation

Showing up to 5 results
|